Regional Weather Roundup
Issued by NWS Wakefield, VA

Home | Current Version | Previous Version | Text Only | Print | Product List | Glossary Off
Versions: 1 2 3 4 5 6 7 8 9 10 11 12 13 14 15 16 17 18 19 20 21 22 23 24 25 26 27 28 29 30 31 32 33 34 35 36 37 38 39 40 41 42 43 44 45 46 47 48 49 50

352
ASUS41 KAKQ 230515
RWRAKQ

REGIONAL WEATHER ROUNDUP
NATIONAL WEATHER SERVICE WAKEFIELD VA
100 AM EDT SUN JUL 23 2017

Note: "fair" indicates few or no clouds below 12,000 feet with no
significant weather and/or obstructions to visibility. * = Denotes
station may not report precipitation (e.g., rain,snow,etc.),
thunder or fog.

VAZ042-051-052>054-056-230600-
NORTHERN VIRGINIA

CITY           SKY/WX    TMP DP  RH WIND       PRES   REMARKS
WASH NATIONAL  LGT RAIN  75  74  96 W5        29.80S
DULLES         CLOUDY    74  72  93 S8        29.79S
FORT BELVOIR   LGT RAIN  74  72  94 NW5       29.80S
QUANTICO       CLOUDY    77  75  93 E7        29.80S
FREDERICKSBRG*   N/A     74  74 100 MISG      29.79F
STAFFORD*      CLOUDY    73  73 100 CALM      29.83F
WARRENTON      DRIZZLE   75  72  89 CALM      29.80R
CULPEPER*      LGT RAIN  75  74  99 CALM      29.82R
MANASSAS*      LGT RAIN  74  73  97 CALM      29.80S
LEESBURG*      CLOUDY    73  73 100 S7        29.80F
WINCHESTER     CLOUDY    70  70 100 CALM      29.80S
FRONT ROYAL*   CLOUDY    73  73 100 S5        29.80S
LURAY*         LGT RAIN  73  73 100 CALM      29.83S
$$

VAZ048-049-060>072-079>083-230600-
CENTRAL AND SOUTH CENTRAL VIRGINIA

CITY           SKY/WX    TMP DP  RH WIND       PRES   REMARKS
RICHMOND       LGT RAIN  84  74  71 W6        29.81R
CHESTERFIELD*  TSTM      79  72  78 W8G25     29.83R
PETERSBURG*    PTCLDY    83  73  71 CALM      29.84R
HANOVER        MOCLDY    77  72  84 SW3       29.82R
TAPPAHANNOCK*    N/A    N/A N/A N/A MISG        N/A
QUINTON*       FAIR      79  77  93 MISG      29.80R
CHARLOTTSVILLE CLOUDY    76  74  93 CALM      29.82R
GORDONSVILLE*  CLOUDY    74  73  99 NW7       29.82R
ORANGE*        CLOUDY    72  70  94 CALM      29.82R
LOUISA*        CLOUDY    73  70  88 CALM      29.80F
BUMPASS*       MOCLDY    74  74 100 CALM      29.81R
FARMVILLE*     CLOUDY    80  67  64 SW5       29.81F THUNDER
CREWE*         FAIR      83  65  54 W3        29.83F
FORT PICKETT*  FAIR     N/A N/A N/A NW3       29.83S
CHASE CITY*    FAIR      81  73  76 CALM      29.84F
CLARKSVILLE*   FAIR      81  73  78 SW6       29.84F
SOUTH HILL*    CLEAR     83  75  78 SW10      29.89F
LAWRENCEVILLE* FAIR      83  73  73 SW6       29.84S
EMPORIA*       CLEAR     82  72  69 S6        29.84F
$$

VAZ088>098-230600-
SOUTHEAST VIRGINIA

CITY           SKY/WX    TMP DP  RH WIND       PRES   REMARKS
NORFOLK        CLOUDY    84  77  79 SW17      29.81S
VIRGINIA BEACH CLOUDY    82  74  76 SW14G21   29.81S
NORFOLK NAVAL  CLOUDY    84  75  74 SW15      29.82F
WEST POINT*    PTCLDY    77  74  91 N10       29.82R
SALUDA*        FAIR      76  76 100 S6        29.78F
NEWPORT NEWS   CLEAR     83  75  77 SW13      29.80F
LANGLEY AFB    CLOUDY    84  76  74 SW10G22   29.80F
FORT EUSTIS    CLEAR     84  76  75 SW7       29.78S
WILLIAMSBURG*  CLEAR     88  75  66 SW3       29.81S HX  97
HR EXEC AP*    FAIR      81  75  83 SW9       29.80S
FRANKLIN*      CLEAR     81  75  83 S5        29.83S
US460-WAKEFLD  CLEAR     84  75  74 SW6       29.82R
$$

VAZ020-022-025-037-045-230600-
WEST CENTRAL AND SOUTHWEST VIRGINIA

CITY           SKY/WX    TMP DP  RH WIND       PRES   REMARKS
STAUNTON*      LGT RAIN  71  69  93 CALM      29.88F
WAYNESBORO*    CLOUDY    73  72  97 W3        29.88F
HOT SPRINGS VA LGT RAIN  70  63  78 W15       30.03F
LYNCHBURG      CLOUDY    78  70  76 SW3       29.86S THUNDER
DANVILLE       CLEAR     76  73  91 S5        29.86F
SOUTH BOSTON*  FAIR      80  70  72 SW7       29.84F
MARTINSVILLE   CLEAR     71  70  95 CALM      29.91F
ROANOKE        PTCLDY    82  72  71 W7        29.89F
BLACKSBURG     PTCLDY    77  69  74 CALM      29.99S
DUBLIN*        MOCLDY    78  64  62 SW6       29.98S
MARION*        CLEAR     76  68  78 SW6       30.03S
HILLSVILLE*    CLEAR     75  66  72 CALM      30.01S
RICHLANDS*     FAIR      78  68  71 W9        30.03S
WISE*          CLOUDY    77  68  73 W7        30.05S
ABINGDON*      CLEAR     78  71  80 W3        30.00F
$$

MDZ021>025-VAZ099-100-230600-
SOUTHERN MARYLAND AND THE DELMARVA PENINSULA

CITY           SKY/WX    TMP DP  RH WIND       PRES   REMARKS
PATUXENT RIVER TSTM      73  73 100 CALM      29.80S
BAY BRIDGE APT CLOUDY    75  73  94 S5        29.78F
LEONARDTOWN    CLOUDY    72  70  94 CALM      29.82F
DOVER          CLOUDY    75  75 100 S10       29.76F
GEORGETOWN     RAIN      75  73  93 W6        29.80S FOG
EASTON         RAIN      75  73  93 W6        29.84R
CAMBRIDGE      CLOUDY    73  72  94 W8        29.82R
SALISBURY      NOT AVBL
OCEAN CITY     TSTM      73  72  96 SW12      29.83R FOG
WALLOPS ISLAND CLOUDY    74  73  97 NW15G23   29.84R THUNDER
ACCOMACK*      CLOUDY    74  72  92 S7        29.79F
$$

NCZ012>017-030>032-230600-
NORTH CENTRAL AND EASTERN NORTH CAROLINA

CITY           SKY/WX    TMP DP  RH WIND       PRES   REMARKS
ROANOKE RAPIDS FAIR      82  73  74 SW10      29.85F
RALEIGH        CLOUDY    83  73  72 SW10      29.89F
ELIZABETH CITY CLEAR     81  76  84 SW12      29.86R
AHOSKIE*         N/A     81  75  83 S3        29.86S
EDENTON*       CLEAR     83  75  75 SW13      29.88S
CURRITUCK*     CLEAR     83  75  77 SW8       29.86S
KILL DEVIL HLS CLEAR     81  74  79 SW12G18   29.86S
MANTEO         NOT AVBL
CAPE HATTERAS  CLEAR     78  74  87 SW10      29.91S
TARBORO*       NOT AVBL
GOLDSBORO      NOT AVBL
WASHINGTON     CLEAR     79  73  81 SW10G17   29.89S
GREENVILLE     CLEAR     81  73  78 SW7       29.91S
NEW BERN       CLEAR     78  75  90 SW8       29.91F
WILMINGTON     CLEAR     79  75  87 SW9       29.93S
$$

VAZ048-230600-
ELSEWHERE

CITY           SKY/WX    TMP DP  RH WIND       PRES   REMARKS
HARRISBURG PA  CLOUDY    76  73  91 NW6       29.75F
BALTIMORE      LGT RAIN  74  73  97 SW5       29.79R
ANNAPOLIS      CLOUDY    72 N/A N/A VRB3      29.78F
ANDREWS AFB    CLOUDY    73  71  95 SW6       29.79F
PHILADELPHIA   CLOUDY    80  70  71 SW13      29.75S
HENDERSON NC   CLOUDY    80  71  74 SW8       29.87F
GREENSBORO     PTCLDY    80  75  84 SW7       29.90F
ROCKY MOUNT    CLEAR     82  76  81 S9        29.88S
$$

VAZ100-230600-
MARINE

STATION/POSITION TIME  TEMP    WIND        PRES    WAVE   SWELL
                       AIR SEA DIR/SP/G            HT/PER HT/PER
                 (UTC) (F)     (DEG/KT/KT) (MB)    (FT/S) (FT/S)
BRANDYWINE LGT   0436   76     250/ 19/ 22 1008.3F
CAPE MAY NJ      0448   76 75  270/ 15/ 17 1007.3F
LEWES DE         0448   74 75  250/  8/ 12 1007.6F
15NM E FENWICK I 0350   76 76  210/ 14/ 16 1008.7    3/ 4   2/ 7
OCEAN-CITY-INLET 0448   73 72  260/  9/ 11 1010.2R
WACHAPREAGUE VA  0448   77 85  180/ 11/ 14 1008.5F
THOMAS POINT MD  0500   77 83  210/ 14/ 16   N/A
GOOSES REEF MD   0450   77     190/  8/ 16 1009.6F
COVE POINT MD    0448   74      CALM  /  3 1010.1F
SOLOMONS ISLAND  0448   75 84  220/  2/  5   N/A
BISHOPS HEAD MD  0448   75 86  210/  5/  8 1010.2R
PINEY POINT MD   0448          250/  3/  3   N/A
POTOMAC MD       0450   75     270/ 17/ 21 1007.6R
CAMBRIDGE MD     0448   74 87              1010.9R
LEWISETTA VA     0448   76 85  210/ 10/ 12 1008.5F
RAPPAHANNOCK LGT 0448          160/ 18/ 20 1009.1F
STINGRAY PT      0450   82     200/ 17/ 19 1008.7F
YORK RVR RNG VA  0448   86     230/ 21/ 25 1008.7F
YORKTOWN VA      0448   85 84  220/ 13/ 17 1008.4F
JAMESTOWN VA     0450          220/ 14/ 17   N/A
DOMINION TERM VA 0448   83     220/ 16/ 18 1009.3F
KIPTOPEKE VA     0448      77  170/ 10/ 11   N/A
CHES BAY BRIDGE  0448   85 73  220/ 26/ 31 1008.6F
CAPE HENRY VA    0448   84     210/ 14/ 19   N/A
WILLOUBY STN VA  0448   84     220/ 21/ 23 1009.0F
S CRANEY ISL VA  0448   83     210/ 13/ 17 1009.3F
CAPE HENRY BUOY  0500      72                N/A     2/10
1ST LANDING BUOY 0450   83                 1008.9F
64NM E OF VA BCH 0450   81 80  220/ 19/ 23 1010.4F   5/ 6   2/ 9
DUCK PIER NC     0448   83 60  220/ 20/ 24 1010.7R
44100 DUCK FRF   0405      72                N/A     3/ 6
44056 DUCK FRF   0430      62                N/A     2/10
OREGON INLET NC  0436   83 83  220/ 21/ 25 1011.6F
HATTERAS NC      0448   77 77  230/  9/ 13 1012.6F
DIAMOND SHLS NC  0450   83 83  230/ 23/ 29 1012.2F   5/ 6   2/10
CAPE LOOKOUT NC  0500   81     230/ 13/ 16 1013.1S
$$




USA.gov is the U.S. government's official web portal to all federal, state and local government web resources and services.